Other Public Products
Issued by NWS Grand Forks, ND

Home | Current Version | Previous Version | Text Only | Print | Product List | Glossary Off
Versions: 1 2 3 4 5 6 7 8 9 10 11 12 13 14 15 16 17 18 19 20 21 22 23 24 25 26 27 28 29 30 31 32 33 34 35 36 37 38 39 40 41 42 43 44 45 46 47 48 49 50

000
FPUS83 KFGF 240631
OPUFGF
PRAIRIE TO PINES WEATHER ROUNDUP
NATIONAL WEATHER SERVICE EASTERN NORTH DAKOTA/GRAND FORKS ND
100 AM CDT TUE MAY 24 2016

 **SATELLITE DATA USED TO AUGMENT SKY COVER AT AUTOMATED STATIONS**
 *****  WEATHER ACROSS EASTERN NORTH DAKOTA  *****

CITY           SKY/WX    TMP DP  RH WIND       PRES   REMARKS
GRAND FORKS    CLOUDY    62  51  67 E7        29.71S
6HR MIN TEMP:  61; 6HR MAX TEMP:  80;

GRAND FORKS AF CLOUDY    63  48  57 E6        29.72S
GRAND CITY NWS   N/A     59 N/A N/A E6          N/A
BUXTON           N/A     61  54  77 NE2         N/A
DEVILS LAKE    CLOUDY    62  48  60 W13       29.75R
6HR MIN TEMP:  59; 6HR MAX TEMP:  77; 6HR PCP: TRACE;

FARGO          CLOUDY    60  49  66 W9        29.71R
6HR MIN TEMP:  60; 6HR MAX TEMP:  77; 6HR PCP: TRACE;

WAHPETON ARPT  CLOUDY    61  43  51 CALM      29.73S
$$

 *****  WEATHER ACROSS CENTRAL AND WESTERN NORTH DAKOTA  *****

CITY           SKY/WX    TMP DP  RH WIND       PRES   REMARKS
JAMESTOWN      CLOUDY    58  49  72 N10       29.77R
6HR MIN TEMP:  57; 6HR MAX TEMP:  77; 6HR PCP:  0.04;

BISMARCK       CLOUDY    59  47  64 SE12      29.74F
6HR MIN TEMP:  59; 6HR MAX TEMP:  76; 6HR PCP:  0.01;

MINOT          CLOUDY    54  44  69 SW7       29.75R
6HR MIN TEMP:  52; 6HR MAX TEMP:  78; 6HR PCP: TRACE;

MINOT AFB      CLOUDY    48  39  71 W7        29.74R
6HR MIN TEMP:  47; 6HR MAX TEMP:  73; 6HR PCP: TRACE;

GARRISON         N/A     51  43  74 W6        29.77R
6HR MIN TEMP:  48; 6HR MAX TEMP:  74;

WILLISTON      CLEAR     49  39  68 SW7       29.77R
6HR MIN TEMP:  49; 6HR MAX TEMP:  70;

DICKINSON      CLEAR     41  34  76 S3        29.78S
6HR MIN TEMP:  41; 6HR MAX TEMP:  67;

HETTINGER      CLEAR     40  36  86 W6        29.82R
6HR MIN TEMP:  39; 6HR MAX TEMP:  68; 6HR PCP: TRACE;

$$

 *****  OTHER OBSERVATIONS NORTHEAST NORTH DAKOTA  *****

CITY           SKY/WX    TMP DP  RH WIND       PRES   REMARKS
WALHALLA       FAIR      59  45  58 CALM      29.73S
LANGDON        FAIR      55  45  67 CALM      29.76R
CAVALIER       FAIR      63  48  59 SW3       29.73S
GRAFTON        FAIR      61  52  72 E6        29.73S
CANDO          CLOUDY    55  46  71 E9        29.77S
FORT TOTTEN      N/A     62  48  60 W7        29.95S
ROLLA          FAIR      54  41  62 SW3       29.76R
RUGBY          FAIR      55  45  67 S5        29.76R
 ***** THE ABOVE OBSERVATIONS ARE NON NWS ARE NOT QUALITY
        CONTROLLED AND MAY MIS-REPORT RAIN FOR SNOW...
$$

 *****  OTHER OBSERVATIONS SOUTHEAST NORTH DAKOTA *****

CITY           SKY/WX    TMP DP  RH WIND       PRES   REMARKS
COOPERSTOWN    NOT AVBL
VALLEY CITY    FAIR      57  52  82 CALM      29.76S
OAKES            N/A    N/A N/A N/A MISG        N/A
GWINNER        FAIR      61  55  82 SW5       29.73S
SHEYENNE NWR     N/A     59  49  68 CALM      29.95
BUFFALO          N/A     58  49  73 E6          N/A
WYNDMERE         N/A     61  46  59 SW3         N/A
 ***** THE ABOVE OBSERVATIONS ARE NON NWS ARE NOT QUALITY
       CONTROLLED AND MAY MIS-REPORT RAIN FOR SNOW...
$$

  *****  WEATHER ACROSS NORTHERN MINNESOTA  *****

CITY           SKY/WX    TMP DP  RH WIND       PRES   REMARKS
FLAG ISLAND    PTCLDY    63  52  67 SE3       29.71F
WARROAD        CLOUDY    57  52  82 S3        29.73F
ROSEAU         CLOUDY    59  46  63 S7        29.73S
HALLOCK        CLOUDY    64  46  52 SW7       29.71S
THF RVR FALLS  CLOUDY    61  46  59 N7        29.77S
6HR MIN TEMP:  61; 6HR MAX TEMP:  79;

HALSTAD        NOT AVBL
FOSSTON          N/A     59  54  82 CALM      29.75R
BAUDETTE       CLOUDY    54  50  86 E3        29.73S
6HR MIN TEMP:  54; 6HR MAX TEMP:  77;

WASKISH        MOCLDY    55  54  94 MISG      29.75S
CROOKSTON      CLOUDY    63  50  63 E8        29.73F
$$
  *****  WEATHER ACROSS CENTRAL AND WEST MINNESOTA  *****

CITY           SKY/WX    TMP DP  RH WIND       PRES   REMARKS
BEMIDJI        CLOUDY    60  55  84 CALM      29.75S
PARK RAPIDS    CLOUDY    66  59  78 E6        29.75F
6HR MIN TEMP:  65; 6HR MAX TEMP:  77;

WADENA         CLOUDY    63  61  94 CALM      29.75S
DETROIT LAKES  CLOUDY    59  54  82 E3        29.76R
MOORHEAD       CLOUDY    64  52  63 CALM      29.72S
FERGUS FALLS   PTCLDY    63  54  72 S6        29.71R
ELBOW LAKE     FAIR      60  57  90 S6        29.74S
6HR MIN TEMP:  60; 6HR MAX TEMP:  76;

MORRIS MN      MOCLDY    63  55  77 S3        29.74S
STAPLES        CLOUDY    61  61 100 S3        29.75S
WHEATON        CLOUDY    63  55  77 S6        29.75R
$$
  *****  WEATHER ELSEWHERE ACROSS MINNESOTA  *****

CITY           SKY/WX    TMP DP  RH WIND       PRES   REMARKS
DULUTH         MOCLDY    60  59  96 SW3       29.79S
6HR MIN TEMP:  61; 6HR MAX TEMP:  72; 6HR PCP:  0.15;

INTRNTL FALLS  FOG       51  51 100 CALM      29.74F VSB 1/4
6HR MIN TEMP:  51; 6HR MAX TEMP:  70;

ELY            CLOUDY    59  57  94 SE6       29.80R
CLOQUET        CLOUDY    61  57  88 CALM      29.78F
BRAINERD       CLOUDY    60  60 100 CALM      29.76S FOG
6HR MIN TEMP:  59; 6HR MAX TEMP:  68; 6HR PCP: TRACE;

HIBBING        CLOUDY    60  58  92 SE3       29.78R
6HR MIN TEMP:  60; 6HR MAX TEMP:  72; 6HR PCP: TRACE;

ALEXANDRIA     LGT RAIN  63  61  93 S3        29.76S
6HR MIN TEMP:  63; 6HR MAX TEMP:  75; 6HR PCP: TRACE;

SAINT CLOUD    CLOUDY    62  61  96 S7        29.76S
6HR MIN TEMP:  62; 6HR MAX TEMP:  67; 6HR PCP:  0.09;

MINNEAPOLIS    CLOUDY    66  60  81 SE9       29.80F
6HR MIN TEMP:  66; 6HR MAX TEMP:  75; 6HR PCP: TRACE;

$$

  *****  WEATHER ACROSS SOUTH DAKOTA  *****

CITY           SKY/WX    TMP DP  RH WIND       PRES   REMARKS
SIOUX FALLS    CLEAR     64  62  93 S8        29.78S
6HR MIN TEMP:  64; 6HR MAX TEMP:  73;

BROOKINGS      CLEAR     62  60  93 S9        29.78R
WATERTOWN      CLEAR     60  54  80 S6        29.77R
6HR MIN TEMP:  60; 6HR MAX TEMP:  74;

HURON          CLEAR     62  58  86 S8        29.74R
6HR MIN TEMP:  62; 6HR MAX TEMP:  76;

SISSETON         N/A     60  52  74 SW6       29.72S
ABERDEEN       CLEAR     56  51  84 SE3       29.74R
6HR MIN TEMP:  56; 6HR MAX TEMP:  80;

MITCHELL       CLEAR     64  61  90 SE8       29.75S
PIERRE         CLOUDY    61  44  53 SW6       29.74R
6HR MIN TEMP:  57; 6HR MAX TEMP:  77;

MOBRIDGE       MOCLDY    59  45  59 N10       29.73F
RAPID CITY     MOCLDY    59  33  37 N14       29.82R
6HR MIN TEMP:  50; 6HR MAX TEMP:  74;

$$

  *****  SOME WEATHER IN NEARBY STATES *****

CITY           SKY/WX    TMP DP  RH WIND       PRES   REMARKS
GLASGOW MT     PTCLDY    47  41  80 W7        29.77S
6HR MIN TEMP:  47; 6HR MAX TEMP:  59;

GREAT FALLS MT CLOUDY    42  40  92 CALM      29.89R
6HR MIN TEMP:  41; 6HR MAX TEMP:  48; 6HR PCP:  0.07;

CHEYENNE WY    PTCLDY    45  38  76 CALM      29.98R
6HR MIN TEMP:  44; 6HR MAX TEMP:  59;

SCOTTSBLUFF NE CLEAR     44  41  89 CALM      29.90S
6HR MIN TEMP:  44; 6HR MAX TEMP:  56; 6HR PCP: TRACE;

OMAHA NE       TSTM      66  63  90 CALM      29.85R
6HR MIN TEMP:  65; 6HR MAX TEMP:  71; 6HR PCP:  0.18;

DES MOINES IA  MOCLDY    68  60  75 S8        29.87S
6HR MIN TEMP:  66; 6HR MAX TEMP:  73;

DAVENPORT IA   PTCLDY    67  48  50 S7        29.92R
6HR MIN TEMP:  64; 6HR MAX TEMP:  80;

CHICAGO IL     PTCLDY    60  43  53 S6        29.94R
6HR MIN TEMP:  60; 6HR MAX TEMP:  77;

EAU CLAIRE WI  LGT RAIN  64  62  93 S6        29.83F
6HR MIN TEMP:  63; 6HR MAX TEMP:  79; 6HR PCP:  0.14;

LA CROSSE WI   CLOUDY    69  59  70 CALM      29.85S
6HR MIN TEMP:  68; 6HR MAX TEMP:  82;

$$

  *****  SOME NATIONAL WEATHER *****

CITY           SKY/WX    TMP DP  RH WIND       PRES   REMARKS
LA GUARDIA NY  LGT RAIN  64  55  72 SW3       29.89F               C1F1C2F2C3F3C4F4C5F5C6F6C7F7C8F8C9F9CaFaCbFbCcFcCdFdCe!



USA.gov is the U.S. government's official web portal to all federal, state and local government web resources and services.